www.pogodaiklimat.ru

Погода и климат >> Архив погоды >> Бангладеш >> Тетулия


ПОГОДА в Тетулии

  • Прогноз погоды в Тетулии
  • Монитор погоды в Тетулии

АРХИВ ПОГОДЫ в Тетулии

Время (UTC), дата Ветер
(напр.,м/с)
 
Видим.   Явления Облачность Т
(С)
Тd
(С)
f
(%)
Тe
(С)
Тes
(С)
Комфортность P
(гПа)
Po
(гПа)
Тmin
(С)
Tmax
(С)
R
(мм)
R24
(мм)
S
(см)
00 13.08 В 1 4000 м 10/4 500 м
[Sc As op]
+25.0 +24.0 94 +34 +34 очень
душно
1001.0 991.2 31
06 13.08 Ю 1 6000 м 8/4 500 м
[Sc As trans]
+30.0 +25.0 75 +43 +52 опасность
перегрева
1002.9 993.1
12 13.08 В 1 5000 м в посл. час дождь {морось} 10/4 500 м
[Sc As op]
+29.0 +25.0 79 +42 +42 опасность
перегрева
1001.3 991.6 +31.9 5
18 13.08 штиль 0 3000 м 10/4 500 м
[Sc As op]
+26.0 +26.0 100 +39 +39 очень
душно
1003.5 993.7
00 14.08 ЮВ 1 4000 м 10/4 500 м
[Sc As op]
+26.5 +25.0 91 +38 +38 очень
душно
1003.5 993.7
06 14.08 В 1 6000 м 5/5 540 м
[Sc]
+30.5 +26.0 77 +46 +58 опасность
перегрева
1004.8 995.1
12 14.08 Ю 1 5000 м слаб. дождь 10/4 500 м
[Sc As op]
+26.0 +26.0 100 +39 +39 очень
душно
1002.9 993.1 +32.2 18
18 14.08 В 1 3000 м 10/4 540 м
[Sc As op]
+26.5 +27.0 100 +40 +40 очень
душно
1003.9 994.1
00 15.08 штиль 0 4000 м 10/4 500 м
[Sc As op]
+25.7 +26.0 100 +38 +38 очень
душно
1004.6 994.8
06 15.08 СВ 1 6000 м 5/5 540 м
[Sc]
+31.6 +26.0 72 +47 +59 опасность
перегрева
1005.2 995.6
12 15.08 В 1 5000 м 10/4 500 м
[Sc As op]
+30.5 +26.0 77 +46 +46 опасность
перегрева
1002.0 992.4 +32.5
18 15.08 штиль 0 3000 м 5/5 450 м
[Sc]
+28.0 +26.0 89 +42 +42 опасность
перегрева
1002.9 993.1
00 16.08 штиль 0 3000 м слаб. дождь 10/4 500 м
[Sc As op]
+26.0 +26.0 100 +39 +39 очень
душно
1002.6 992.8 29
06 16.08 В 1 5000 м морось 10/4 500 м
[Sc As op]
+26.3 +26.0 98 +39 +42 очень
душно
1003.6 993.8 19
12 16.08 штиль 0 7000 м 5/5 540 м
[Sc]
+28.9 +26.0 84 +43 +44 опасность
перегрева
1000.4 990.7 +29.0 3
18 16.08 штиль 0 3000 м 5/5 540 м
[Sc]
+26.5 +26.0 97 +40 +40 очень
душно
1002.5 992.7
00 17.08 В 1 4000 м 10/4 500 м
[Sc As op]
+26.5 +26.0 97 +40 +40 очень
душно
1002.6 992.8
06 17.08 ЮЗ 2 5000 м 5/5 240 м
[St]
+31.2 +27.0 78 +49 +60 опасность
перегрева
1002.9 993.2
09 17.08 В 1 6000 м 5/5 300 м
[Sc]
+32.6 +29.0 81 +56 +63 опасность
перегрева
1001.2 991.6
12 17.08 Ю 1 5000 м 5/5 300 м
[Sc]
+31.5 +28.0 82 +52 +52 опасность
перегрева
1001.2 991.6 +33.0
18 17.08 В 1 3000 м 10/4 540 м
[Sc As op]
+25.8 +26.0 100 +38 +38 очень
душно
1003.6 993.8 5
00 18.08 В 1 3000 м 10/4 500 м
[Sc As op]
+26.6 +27.0 100 +41 +41 опасность
перегрева
1002.6 992.8
06 18.08 В 1 5000 м 10/4 540 м
[Sc As op]
+31.5 +27.0 77 +49 +52 опасность
перегрева
1004.9 995.3
12 18.08 ЮЗ 1 5000 м 8/4 500 м
[Sc As trans]
+31.0 +26.0 75 +46 +47 опасность
перегрева
1002.3 992.6 +32.3
18 18.08 штиль 0 3000 м 8/5 500 м
[Sc]
+29.0 +24.0 74 +40 +40 очень
душно
1003.8 994.1
00 19.08 штиль 0 4000 м 10/4 500 м
[Sc As op]
+27.0 +26.0 94 +40 +40 очень
душно
1003.7 993.9
06 19.08 В 1 5000 м 10/4 500 м
[Sc As op]
+31.5 +27.0 77 +49 +52 опасность
перегрева
1005.7 996.1 3
12 19.08 штиль 0 6000 м 5/0 300 м
[Ac trans]
+30.5 +26.0 77 +46 +46 опасность
перегрева
1002.9 993.2 +31.5
18 19.08 штиль 0 5000 м 3/3 540 м
[Sc]
+27.2 +26.0 93 +41 +41 опасность
перегрева
1005.1 995.3

 

Местоположение метеостанции Тетулия (Бангладеш): широта 26.34 долгота 88.61 высота над уровнем моря 10 м.

В архиве по умолчанию представлена погода в Тетулии за последнюю неделю. Архивные данные за месяц целиком и за предыдущие месяцы, начиная с января 2011 года, Вы можете получить, выбрав интересующий диапазон дат из раскрывающегося списка и нажав кнопку "Ввод!".


*Определитесь, кто Вы:
робот инопланетянин человек

Внимание! Время в таблицах - всемирное. Для получения местного времени необходимо прибавить поправку, которая равна 6.5 ч.

Смотрите также архив погоды в соседних городах и на ближайших метеорологических станциях:

Погода в Джалпайгури (Западная Бенгалия, Индия) (24 км)
Погода в Димле (Бангладеш) (28 км)
Погода в Силигури (Западная Бенгалия, Индия) (47 км)
Погода в Саидпуре (Бангладеш) (73 км)
Погода в Динаджпуре (Бангладеш) (77 км)
Погода в Калимпонге (Индия) (82 км)
Погода в Куч-Бихар (Западная Бенгалия, Индия) (86 км)
Погода в Дарджилинге (Индия) (86 км)
Погода в Рангпуре (Бангладеш) (92 км)
Погода в Гангтоке (Сикким, Индия) (110 км)

Пояснения к столбцам:

Ветер - указаны скорость ветра в м/с - средняя за 10 мин, порывы в срок и между сроками (в фигурных скобках) и направление, откуда дует ветер: С - северный, СВ - северо-восточный, В - восточный, ЮВ - юго-восточный, Ю - южный, ЮЗ - юго-западный, З - западный, СЗ - северо-западный.
Видимость - горизонтальная дальность видимости в метрах или километрах. При видимости от 1 до 10 км при отсутствии осадков обычно наблюдается дымка, при ухудшении видимости до 1 км и менее - туман. В сухую погоду видимость может ухудшаться дымом, пылью или мглою.
Явления - указаны атмосферные явления, наблюдавшиеся в срок или в последний час перед сроком; фигурными скобками обозначены явления, наблюдавшиеся между сроками (за 1-3 часа до срока); квадратными скобками обозначены град или гололедные отложения с указанием их диаметра в мм.
Облачность - указаны через наклонную черту общая и нижняя облачность в баллах и высота нижней границы облаков в метрах; квадратными скобками обозначены формы облаков: Ci - перистые, Cs - перисто-слоистые, Cc - перисто-кучевые, Ac - высококучевые, As - высокослоистые, Sc - слоисто-кучевые, Ns - слоисто-дождевые, Cu - кучевые, Cb - кучево-дождевые. Подробнее классификацию облаков см. в Атласе облаков (PDF).
T - Температура воздуха - температура, измеренная на высоте 2 м над землей.
Td - Температура точки росы - температура, при понижении до которой содержащийся в воздухе водяной пар достигнет насыщения.
f - Относительная влажность воздуха - влажноcть воздуха, измеренная на высоте 2 м над землей.
Te - Эффективная температура - температура, которую ощущает одетый по сезону человек в тени. Характеристика душности погоды. При расчете учитывается влияние влажности воздуха и скорости ветра на теплоощущения человека.
Tes - Эффективная температура на солнце - температура, которую ощущает человек, с поправкой на солнечный нагрев. Характеристика знойности погоды. Зависит от высоты солнца над горизонтом, облачности и скорости ветра. Ночью, в пасмурную погоду, а также при ветре 12 м/с и более поправка равна нулю.
P - Атмосферное давление - приведенное к уровню моря атмосферное давление.
Po - Атмосферное давление - измеренное на уровне метеостанции атмосферное давление.
Tmin - Минимальная температура - минимум температуры воздуха на высоте 2 м над землей.
Tmax - Максимальная температура - максимум температуры воздуха на высоте 2 м над землей.
R - Количество осадков - Количество выпавших осадков за период времени, мм. При наведении курсора мыши на число - период времени, за который выпало указанное количество осадков.
R24 - Количество осадков - Количество выпавших осадков за 24 часа, мм.
S - Снежный покров - Высота снежного покрова, см. При наведении курсора мыши на число - состояние снежного покрова и степень покрытия местности в баллах.